Location: Chantarel
(45.1638°N, 1.7873°E)
Time: 20:02:00
(UTC+00:00)

Meteor 1-20 Rocket - Pass Details

Date: 03 March 2021
Orbit: 820 x 891 km, 81.2° (Epoch: 13 April)

Event Time Altitude Azimuth Distance (km) Brightness Sun altitude
Rises 18:06:34 0° 181° (S) 3,338 7.4 -5.0°
Reaches altitude 10° 18:08:57 10° 178° (S) 2,409 6.6 -5.4°
Maximum altitude 18:14:20 68° 97° (E) 885 4.1 -6.3°
Drops below altitude 10° 18:19:48 10° 15° (NNE) 2,441 6.4 -7.3°
Sets 18:22:14 0° 14° (NNE) 3,386 7.2 -7.7°
